Temperature
13 13 13 13 13 13 13 14 14 14 14 14 14 14 14 14 14 14 14 14 14 14 14 14 14 15 15 15 15 15 15 15 15 15 15 15 15 15 15 15 15 15 15
13 13 13 13 13 13 13 13 14 14 14 14 14 14 14 14 14 14 14 14 14 14 14 14 14 14 14 15 15 15 15 15 15 15 15 15 15 15 15 15 15 15 15
13 13 13 13 13 13 13 13 13 14 14 14 14 14 14 14 14 14 14 14 14 14 14 14 14 14 14 14 14 14 14 14 15 15 15 15 15 15 15 15 15 15 15
13 13 13 13 13 13 13 13 13 13 13 13 13 13 13 13 14 14 14 14 14 14 14 14 14 14 14 14 14 14 14 14 14 14 14 14 14 14 15 15 15 15 15
12 12 12 12 13 13 13 13 13 13 13 13 13 13 13 13 13 13 14 14 14 14 14 14 14 14 14 14 14 14 14 14 14 14 14 14 14 14 14 14 14 15 15
12 12 12 12 12 12 13 13 13 13 13 13 13 13 13 13 13 13 13 13 13 13 13 13 13 13 13 13 13 13 14 14 14 14 14 14 14 14 14 14 14 14 14
12 12 12 12 12 12 12 12 12 12 12 12 12 13 13 13 13 13 13 13 13 13 13 13 13 13 13 13 13 13 13 13 13 13 13 14 14 14 14 14 14 14 14
11 12 11 12 12 12 12 12 12 12 12 12 12 12 12 12 12 12 12 12 13 13 13 13 13 13 13 13 13 13 13 13 13 13 13 13 13 13 14 14 14 14 14
11 11 11 11 11 11 11 11 12 12 12 12 12 12 12 12 12 12 12 12 12 13 13 13 13 13 13 13 13 13 13 13 13 13 13 13 13 13 13 13 13 13 13
10 11 11 11 11 11 11 11 11 11 11 11 11 11 11 11 11 11 12 12 12 12 12 12 12 12 12 12 12 12 12 12 12 13 13 13 13 13 13 13 13 13 13
10 10 10 10 10 10 11 11 11 11 11 11 11 11 11 11 11 11 11 11 11 12 12 12 12 12 12 12 12 12 12 12 12 12 12 12 12 12 12 13 13 13 13
10 10 10 10 10 10 10 10 10 10 10 10 10 10 10 11 11 11 11 11 11 11 11 11 11 11 12 12 12 12 12 12 12 12 12 12 12 12 12 12 12 12 12
9 9 9 9 9 9 9 9 10 10 10 10 10 10 10 10 10 10 10 10 11 11 11 11 11 11 11 11 11 11 11 11 11 12 12 12 12 12 12 12 12 12 12
8 9 8 9 9 9 9 9 9 9 9 9 9 9 9 9 10 10 10 10 10 10 10 10 10 10 11 11 11 11 11 11 11 11 11 11 12 12 12 12 12 12 12
8 8 8 8 8 8 8 8 8 8 8 8 8 8 9 9 9 9 9 9 9 9 9 9 10 10 10 10 10 10 11 11 11 11 11 11 11 11 11 11 11 11 11
7 7 7 8 8 8 8 8 8 8 8 8 8 8 8 8 8 8 8 8 8 8 9 9 9 9 9 9 10 10 10 10 10 10 11 11 11 11 11 11 11 11 11
6 7 7 7 7 7 7 7 7 7 7 7 7 7 7 7 7 7 7 8 8 8 8 8 8 8 8 8 9 9 9 10 10 10 10 10 10 10 10 10 11 11 11
6 6 6 6 6 6 7 7 7 7 7 7 7 7 7 7 7 7 7 7 7 7 7 7 7 8 8 8 8 8 9 9 9 9 9 10 10 10 10 10 10 10 10
5 6 6 6 6 6 6 6 6 6 6 6 6 6 6 6 6 6 6 6 6 6 7 7 7 7 7 7 7 8 8 8 9 9 9 9 9 9 9 10 10 10 10
5 5 5 5 5 5 5 5 6 6 6 5 5 6 6 6 5 5 5 5 6 6 6 6 6 6 6 6 7 7 7 8 8 8 8 8 8 8 9 9 9 9 9
4 5 5 5 5 5 5 5 5 5 5 5 5 5 5 5 5 5 5 5 5 5 5 5 5 6 6 6 6 6 7 7 7 7 8 8 8 8 8 8 8 8 9
4 4 4 4 4 4 4 4 4 4 4 4 4 4 4 4 4 4 4 4 4 4 4 4 4 4 5 5 5 5 5 5 6 7 7 7 7 7 7 7 8 8 8
3 3 3 4 4 4 3 3 3 3 3 4 4 3 3 3 3 3 3 3 3 3 4 4 4 4 4 4 4 3 3 4 4 5 6 6 6 7 7 7 7 7 7
3 3 3 3 3 3 3 3 3 2 3 3 3 3 3 3 3 3 3 3 3 3 3 3 3 3 3 3 3 3 3 3 3 3 5 5 6 6 6 6 6 7 7
2 2 2 2 2 2 2 2 2 2 2 2 2 2 2 2 2 2 2 2 2 2 2 2 2 2 2 2 3 3 3 3 3 3 3 4 5 5 5 6 6 6 6
2 2 2 2 2 1 1 1 1 1 1 1 1 1 1 1 1 1 1 2 2 2 2 2 2 2 2 2 2 2 2 2 2 2 2 3 3 4 5 5 5 5 6
Wind_Speed
4 7 5 4 5 7 8 8 9 9 10 10 10 10 10 11 11 11 11 11 11 10 11 11 11 11 11 11 11 10 11 11 11 11 11 12 12 13 13 12 13 13 14
4 5 3 5 6 7 8 8 8 9 9 10 10 10 10 10 10 11 11 11 11 10 11 11 11 10 10 10 11 10 10 11 11 11 11 10 10 11 12 12 12 12 14
4 4 4 6 7 8 8 8 8 8 9 9 9 10 10 9 10 11 10 10 10 11 11 10 10 10 10 10 10 10 10 10 10 10 10 8 8 10 11 11 12 12 13
5 5 5 7 8 9 9 9 8 9 9 8 9 9 9 9 9 9 10 10 10 10 10 10 9 9 9 9 9 9 10 9 9 9 8 7 6 8 10 10 11 12 12
7 7 6 8 8 9 9 9 9 9 9 9 9 9 9 8 8 9 9 9 9 10 10 10 9 9 8 8 8 8 9 9 9 8 7 6 5 6 8 10 10 11 12
7 8 7 8 8 9 9 9 9 9 9 9 9 9 8 8 8 8 9 9 9 9 9 9 9 8 8 7 7 8 8 8 8 8 7 6 4 5 7 9 10 11 11
6 9 8 8 8 8 9 9 9 9 9 9 9 9 9 9 9 9 9 9 8 9 9 9 8 8 8 7 6 7 7 7 7 6 6 5 4 5 7 8 9 10 11
7 9 9 9 9 8 8 8 9 9 10 10 9 9 9 9 8 9 8 8 8 8 9 8 8 8 8 7 7 7 7 7 6 5 5 4 3 4 6 7 8 9 10
10 10 10 10 9 9 9 8 8 9 9 9 9 9 9 9 9 9 9 8 8 8 9 9 8 8 8 8 7 7 7 7 6 5 4 3 2 3 5 6 7 8 9
10 11 11 11 10 10 9 8 8 8 9 9 9 9 9 9 9 9 9 8 8 8 9 9 9 9 8 8 8 8 7 7 6 5 4 3 2 3 3 5 6 7 9
9 9 10 11 11 10 8 9 8 8 8 8 8 9 8 8 8 8 8 9 9 8 8 9 9 9 9 8 8 8 7 6 5 5 4 3 3 3 3 3 4 6 7
7 7 8 9 10 10 9 9 9 8 8 8 8 8 7 7 7 7 8 8 9 9 8 9 9 9 8 7 7 7 6 5 4 4 3 3 3 2 3 3 4 5 6
4 6 7 8 9 9 8 8 8 8 8 8 8 8 7 7 7 7 7 8 8 8 8 7 8 8 7 6 6 5 5 5 4 3 4 3 2 2 2 3 3 4 5
4 5 7 8 8 8 8 7 7 7 7 7 7 7 7 6 6 6 6 6 6 6 6 6 6 6 6 6 5 5 4 4 3 3 3 3 1 1 1 2 3 4 5
5 6 6 7 7 7 7 7 7 7 6 6 6 6 6 5 4 4 5 5 6 5 5 5 5 5 5 5 5 4 4 4 3 3 3 3 1 0 1 2 3 4 5
5 5 5 6 7 8 7 6 6 6 6 6 6 6 5 5 4 4 4 5 5 5 4 4 4 4 3 3 4 4 3 3 3 3 3 2 1 1 1 2 3 3 4
4 5 5 5 7 7 6 7 7 7 7 6 6 6 5 5 4 4 4 4 5 4 5 4 4 4 3 3 3 3 3 3 3 2 2 2 2 0 1 2 3 3 4
4 5 5 5 6 6 6 6 6 7 7 7 7 7 6 5 4 3 3 3 5 4 4 3 2 2 2 2 2 2 3 3 2 2 1 1 1 1 1 1 2 3 3
4 4 5 5 6 6 6 6 6 7 7 7 8 7 7 6 5 4 3 4 4 4 3 3 2 1 2 2 2 2 2 2 2 1 1 1 1 1 1 1 1 2 3
4 4 5 5 6 5 5 4 5 5 6 8 8 8 9 7 6 4 3 4 3 2 2 2 2 1 1 2 2 2 3 2 1 1 0 1 2 1 2 2 1 1 3
5 5 5 6 6 5 4 3 3 4 4 5 8 9 9 9 7 5 4 3 3 1 1 1 2 2 1 1 1 2 3 2 1 1 1 1 2 2 2 3 2 2 1
4 5 5 5 5 5 3 2 1 2 2 3 6 8 10 9 8 6 4 3 2 1 1 1 1 1 1 0 0 1 2 2 2 2 1 0 1 1 1 2 2 2 1
3 3 4 4 5 5 5 3 3 3 3 3 5 5 8 9 9 7 6 4 3 1 2 2 2 1 1 2 1 1 1 2 3 2 2 1 1 1 1 1 0 1 1
2 2 3 4 4 5 5 4 4 4 3 4 4 5 8 9 9 8 7 5 4 3 2 3 2 2 2 2 2 2 2 2 2 2 2 2 2 2 2 1 1 2 2
1 2 2 3 4 4 4 4 4 3 3 4 5 6 6 7 8 8 8 6 4 3 3 3 3 3 3 3 2 2 2 2 3 3 3 3 3 3 2 2 2 2 3
1 2 2 2 3 3 3 3 3 3 4 5 6 6 6 5 6 8 8 7 6 4 4 4 4 4 4 4 3 3 3 2 3 2 3 4 4 4 3 2 2 3 4
Wind_Direction
315 323 334 32 52 55 53 52 56 56 56 59 62 62 61 62 63 62 61 60 59 60 62 65 66 65 67 68 71 73 75 76 76 77 78 83 89 97 94 92 91 91 95
306 327 4 51 64 61 55 52 53 56 56 59 59 59 59 59 59 59 58 57 56 57 59 62 62 62 64 66 67 70 76 76 76 74 75 78 86 96 97 95 95 98 98
358 9 37 66 67 64 59 55 54 55 57 60 58 58 58 57 56 57 56 53 53 54 54 56 57 58 61 64 66 69 75 81 80 74 72 71 80 95 101 100 100 101 100
18 32 47 67 67 65 61 57 54 54 56 59 59 57 55 56 56 55 53 52 49 50 51 52 53 56 58 61 66 69 74 78 79 74 70 70 76 96 107 106 105 103 103
29 34 47 66 66 63 60 58 54 55 56 56 55 56 53 53 56 56 55 54 51 49 48 48 49 52 53 56 62 68 72 74 74 68 64 64 73 97 108 111 110 108 108
29 32 42 62 62 61 59 57 55 55 54 54 52 53 54 52 54 55 54 53 50 48 47 44 44 46 50 53 62 67 71 74 72 68 63 62 73 102 111 116 117 115 113
35 34 38 52 55 58 57 56 56 54 52 52 50 49 52 51 50 52 52 49 47 46 44 41 44 41 43 46 58 66 66 70 70 63 56 57 71 104 115 120 121 121 118
42 38 39 42 45 49 53 54 54 53 52 49 46 44 45 44 45 49 48 47 44 45 41 38 41 40 42 47 56 62 60 63 63 57 48 45 63 98 111 116 125 123 122
43 39 34 35 38 41 45 49 52 52 52 49 44 43 42 42 42 43 43 44 45 43 39 34 36 37 42 46 53 55 57 61 60 49 42 31 57 100 108 117 124 129 127
41 35 30 30 32 35 37 40 46 48 48 46 43 41 41 40 38 36 36 39 42 40 38 34 33 34 39 44 47 48 50 56 54 46 41 37 76 98 111 116 131 136 134
30 26 25 26 28 31 36 35 35 39 40 42 40 40 40 33 31 30 29 32 34 37 38 36 34 38 39 40 41 40 42 45 43 38 37 43 72 91 101 117 132 139 142
19 15 21 23 24 28 32 32 31 32 32 34 35 36 38 36 32 30 27 28 29 31 33 33 31 38 36 34 34 36 33 31 38 25 25 36 62 92 107 115 134 145 147
15 18 16 19 23 27 27 31 30 29 28 29 32 34 36 38 32 29 26 19 19 23 25 23 29 31 30 29 29 29 26 26 22 10 9 23 47 83 110 116 129 152 162
27 18 13 19 24 27 29 30 29 29 28 26 25 33 37 34 29 24 22 14 15 16 15 14 18 21 24 24 26 25 19 18 9 360 350 3 25 75 132 139 140 147 159
20 14 9 17 22 28 32 28 30 24 23 20 23 25 33 34 25 21 16 12 8 9 10 8 7 10 13 15 14 15 7 2 358 357 351 354 14 98 171 174 159 154 161
9 4 7 19 20 28 32 26 22 18 19 21 20 15 21 29 27 20 15 10 4 360 2 5 0 360 360 5 6 1 357 357 352 352 350 352 6 133 156 177 173 164 165
5 1 10 19 22 25 23 19 19 15 17 16 11 8 14 22 22 22 18 7 356 355 4 11 10 10 6 4 356 350 355 352 350 353 354 356 351 19 149 182 187 172 174
13 13 14 22 23 20 17 15 17 15 15 10 4 3 3 8 14 20 17 358 354 3 10 10 16 9 356 347 337 332 339 343 345 344 1 25 12 9 85 138 171 183 182
17 15 17 16 16 14 12 14 18 19 15 8 6 2 355 354 2 11 2 353 357 4 7 4 9 6 338 335 325 323 322 321 330 341 9 26 38 25 43 87 162 185 187
22 20 19 16 11 11 12 15 16 17 11 8 5 2 358 352 351 357 355 352 359 6 0 3 349 350 305 322 320 322 313 302 320 321 346 34 52 66 68 64 76 159 187
21 19 15 14 6 12 5 3 359 347 344 355 357 357 356 353 346 344 346 346 348 325 309 343 350 339 341 357 356 334 325 313 303 308 12 49 46 60 74 63 64 78 123
16 9 10 8 5 9 1 344 333 323 328 339 346 352 354 353 348 339 336 335 326 303 301 309 341 331 311 356 16 309 321 321 324 315 286 259 326 30 50 38 83 87 73
6 359 4 4 6 8 10 7 3 359 344 352 346 346 347 348 348 338 333 329 316 288 257 263 243 249 278 264 228 189 218 257 310 295 285 275 272 276 307 349 65 161 177
330 348 360 4 9 11 20 24 21 8 347 329 326 326 335 340 342 337 334 330 327 310 262 252 251 246 229 255 268 259 241 227 243 290 292 288 275 257 253 263 267 229 222
334 350 351 5 12 13 21 22 22 5 339 326 330 331 333 336 337 334 331 327 321 315 291 267 251 244 237 242 248 266 272 269 232 238 265 282 296 274 263 245 234 231 219
350 359 359 4 2 7 14 11 13 356 342 338 335 335 332 330 331 333 329 326 321 312 290 280 260 246 244 246 245 247 246 243 241 236 251 265 276 283 279 258 232 223 210
Height
1543 1543 1544 1544 1544 1544 1544 1544 1544 1543 1543 1543 1543 1543 1543 1543 1543 1543 1543 1543 1543 1543 1543 1543 1543 1543 1543 1543 1543 1543 1543 1544 1544 1544 1544 1544 1545 1545 1546 1546 1546 1547 1547
1544 1544 1544 1544 1544 1544 1544 1544 1544 1544 1544 1544 1544 1543 1543 1543 1543 1543 1543 1543 1543 1543 1543 1543 1543 1544 1544 1544 1544 1544 1544 1545 1545 1545 1545 1546 1546 1546 1547 1547 1548 1548 1549
1544 1544 1544 1544 1544 1544 1544 1544 1544 1544 1544 1544 1544 1544 1544 1543 1544 1544 1543 1544 1544 1544 1544 1544 1544 1544 1544 1544 1545 1545 1545 1546 1546 1546 1546 1547 1547 1548 1548 1549 1549 1550 1550
1544 1544 1544 1544 1544 1544 1544 1544 1544 1544 1544 1544 1544 1544 1544 1544 1544 1544 1544 1544 1544 1544 1544 1544 1544 1545 1545 1545 1545 1545 1546 1546 1546 1547 1547 1548 1548 1549 1549 1550 1550 1551 1551
1544 1544 1544 1544 1544 1544 1544 1544 1544 1544 1544 1544 1544 1544 1544 1544 1544 1544 1544 1544 1544 1544 1544 1544 1544 1545 1545 1545 1545 1546 1546 1547 1547 1547 1548 1548 1549 1549 1550 1550 1551 1552 1552
1544 1544 1544 1544 1544 1544 1544 1544 1544 1544 1544 1544 1544 1544 1544 1544 1544 1543 1543 1543 1543 1544 1544 1544 1544 1545 1545 1545 1545 1546 1546 1547 1547 1548 1548 1549 1549 1550 1550 1551 1552 1552 1553
1544 1544 1544 1544 1544 1544 1544 1544 1544 1544 1544 1544 1543 1543 1543 1543 1543 1543 1543 1543 1543 1543 1543 1544 1544 1544 1545 1545 1545 1546 1546 1547 1547 1548 1548 1549 1549 1550 1551 1551 1552 1553 1553
1544 1544 1544 1544 1543 1543 1543 1543 1543 1543 1543 1543 1543 1543 1542 1542 1542 1542 1542 1542 1543 1543 1543 1543 1543 1544 1544 1545 1545 1545 1546 1546 1547 1548 1548 1549 1550 1550 1551 1551 1552 1553 1553
1544 1544 1544 1544 1543 1543 1543 1543 1543 1542 1542 1542 1542 1542 1541 1541 1541 1541 1541 1542 1542 1542 1542 1542 1542 1543 1543 1544 1544 1545 1545 1546 1547 1547 1548 1549 1549 1550 1550 1551 1552 1553 1554
1544 1544 1543 1543 1543 1542 1542 1542 1542 1542 1541 1541 1541 1541 1541 1541 1540 1541 1541 1541 1541 1541 1541 1541 1541 1542 1542 1543 1543 1544 1544 1545 1546 1547 1547 1548 1549 1549 1550 1551 1551 1552 1553
1543 1543 1543 1543 1542 1542 1541 1541 1541 1541 1540 1540 1540 1540 1540 1540 1540 1540 1540 1540 1539 1540 1540 1540 1540 1540 1541 1541 1542 1543 1543 1544 1545 1545 1546 1547 1548 1548 1549 1550 1551 1552 1553
1542 1542 1542 1542 1542 1541 1541 1540 1540 1540 1539 1539 1539 1539 1539 1539 1539 1539 1539 1539 1539 1538 1538 1538 1539 1539 1539 1540 1540 1541 1542 1542 1543 1544 1545 1545 1546 1547 1548 1548 1549 1550 1551
1541 1541 1541 1541 1541 1540 1540 1539 1539 1538 1538 1538 1538 1538 1538 1537 1537 1537 1537 1537 1537 1537 1537 1537 1537 1537 1538 1538 1538 1539 1539 1540 1541 1542 1543 1543 1544 1545 1546 1547 1548 1549 1550
1541 1540 1540 1540 1540 1539 1539 1539 1538 1537 1537 1536 1536 1536 1536 1536 1535 1535 1535 1535 1535 1535 1535 1535 1535 1536 1536 1536 1537 1537 1537 1538 1539 1539 1540 1541 1542 1543 1544 1544 1545 1546 1547
1540 1540 1539 1539 1539 1538 1538 1538 1537 1536 1536 1535 1535 1534 1534 1534 1534 1533 1533 1533 1533 1533 1533 1533 1533 1533 1534 1534 1534 1535 1535 1536 1536 1537 1538 1538 1539 1540 1541 1542 1543 1544 1545
1539 1539 1539 1538 1538 1537 1537 1536 1536 1535 1535 1534 1533 1533 1532 1532 1532 1531 1531 1531 1531 1531 1531 1531 1531 1531 1531 1531 1532 1532 1533 1533 1533 1534 1535 1536 1536 1537 1538 1540 1541 1542 1543
1538 1538 1538 1538 1537 1537 1536 1535 1535 1534 1533 1533 1532 1531 1531 1530 1530 1529 1529 1529 1529 1528 1528 1528 1529 1528 1528 1529 1529 1529 1529 1530 1530 1531 1532 1532 1533 1534 1535 1537 1538 1539 1540
1538 1538 1537 1537 1536 1536 1535 1534 1533 1533 1532 1531 1530 1530 1529 1528 1528 1527 1527 1527 1526 1526 1525 1525 1525 1525 1525 1525 1526 1526 1526 1526 1527 1528 1528 1529 1530 1531 1532 1534 1535 1536 1537
1537 1537 1536 1536 1535 1534 1534 1533 1532 1531 1530 1529 1529 1527 1527 1526 1525 1524 1524 1524 1523 1523 1523 1522 1522 1522 1522 1522 1522 1522 1523 1523 1524 1524 1525 1526 1527 1528 1529 1530 1532 1533 1534
1536 1535 1535 1534 1533 1533 1532 1531 1530 1530 1529 1528 1526 1525 1524 1523 1522 1522 1521 1521 1521 1520 1519 1519 1519 1519 1519 1519 1519 1519 1519 1519 1520 1521 1521 1523 1523 1525 1525 1527 1528 1529 1531
1534 1534 1533 1532 1532 1531 1530 1529 1528 1527 1526 1525 1524 1523 1522 1520 1519 1519 1518 1518 1517 1517 1516 1516 1516 1515 1515 1516 1516 1515 1515 1516 1516 1517 1518 1519 1520 1521 1522 1523 1525 1526 1527
1533 1532 1532 1531 1530 1529 1528 1527 1526 1525 1523 1523 1522 1520 1519 1517 1516 1515 1515 1514 1514 1513 1513 1513 1512 1512 1512 1513 1513 1512 1512 1513 1512 1513 1514 1515 1517 1518 1519 1520 1521 1523 1524
1531 1531 1530 1529 1528 1527 1526 1525 1524 1523 1521 1520 1519 1517 1516 1515 1513 1512 1511 1511 1510 1509 1509 1509 1509 1509 1509 1510 1510 1511 1510 1509 1508 1509 1510 1511 1513 1514 1515 1516 1517 1519 1520
1529 1529 1528 1527 1526 1525 1524 1523 1521 1520 1518 1517 1516 1514 1513 1512 1510 1509 1508 1507 1506 1506 1505 1505 1505 1505 1506 1506 1507 1507 1508 1507 1507 1505 1506 1507 1508 1510 1511 1512 1513 1515 1516
1528 1527 1526 1525 1524 1523 1522 1521 1519 1518 1516 1515 1513 1511 1510 1508 1507 1506 1505 1503 1503 1502 1501 1501 1501 1501 1501 1502 1502 1503 1503 1504 1504 1504 1501 1502 1504 1505 1506 1507 1509 1510 1512
1525 1525 1524 1523 1522 1521 1519 1518 1517 1515 1514 1512 1510 1508 1506 1505 1504 1502 1501 1500 1499 1498 1498 1497 1497 1497 1497 1497 1498 1498 1498 1499 1499 1500 1498 1498 1499 1500 1501 1503 1504 1505 1507